• In Hungary
  • List of Countries
  • For 7 days
  • Water Temperature
  • Satellite Maps
  • Weather Map
  • News
  • Weather Widgets
  • user-avatar
    Login

    Hourly Weather Prcanj

    Today, 21 February, Wednesday

    Time Temperature Precipitation Wind Pressure Humidity
    00:00 +3°C° 1.9 mm 4 mps 696 mmHg 91%
    01:00 +3°C° 1.9 mm 4 mps 696 mmHg 91%
    02:00 +2°C° 1.1 mm 5 mps 696 mmHg 90%
    03:00 +2°C° 1.1 mm 5 mps 696 mmHg 90%
    04:00 +2°C° 1.1 mm 5 mps 696 mmHg 90%
    05:00 +2°C° 0.7 mm 5 mps 696 mmHg 90%
    06:00 +3°C° 0.7 mm 4 mps 696 mmHg 89%
    07:00 +3°C° 0.7 mm 4 mps 696 mmHg 89%
    08:00 +3°C° 0.4 mm 4 mps 696 mmHg 89%
    09:00 +4°C° 0.4 mm 4 mps 696 mmHg 89%
    10:00 +5°C° 0.4 mm 4 mps 696 mmHg 89%
    11:00 +5°C° 0.4 mm 4 mps 696 mmHg 88%
    12:00 +5°C° 0.4 mm 4 mps 696 mmHg 88%
    13:00 +5°C° 0.4 mm 3 mps 696 mmHg 87%
    14:00 +5°C° 0.6 mm 3 mps 696 mmHg 88%
    15:00 +5°C° 0.6 mm 3 mps 696 mmHg 89%
    16:00 +5°C° 0.6 mm 3 mps 695 mmHg 90%
    17:00 +4°C° 0.4 mm 3 mps 696 mmHg 90%
    18:00 +4°C° 0.4 mm 4 mps 696 mmHg 89%
    19:00 +4°C° 0.4 mm 4 mps 696 mmHg 89%
    20:00 +4°C° 0.1 mm 4 mps 696 mmHg 88%
    21:00 +4°C° 0.1 mm 4 mps 696 mmHg 87%
    22:00 +3°C° 0.1 mm 4 mps 696 mmHg 86%
    23:00 +3°C° 0.3 mm 4 mps 696 mmHg 86%

    Tomorrow, 22 February, Thursday

    Time Temperature Precipitation Wind Pressure Humidity
    00:00 +3°C° 0.3 mm 4 mps 696 mmHg 86%
    01:00 +3°C° 0.3 mm 4 mps 696 mmHg 87%
    02:00 +3°C° 0.8 mm 4 mps 696 mmHg 88%
    03:00 +3°C° 0.8 mm 4 mps 696 mmHg 90%
    04:00 +2°C° 0.8 mm 5 mps 696 mmHg 91%
    05:00 +3°C° 0.4 mm 4 mps 696 mmHg 91%
    06:00 +3°C° 0.4 mm 4 mps 696 mmHg 91%
    07:00 +3°C° 0.4 mm 4 mps 696 mmHg 90%
    08:00 +4°C° 0.1 mm 4 mps 697 mmHg 89%
    09:00 +5°C° 0.1 mm 4 mps 697 mmHg 87%
    10:00 +5°C° 0.1 mm 4 mps 697 mmHg 86%
    11:00 +6°C° 0.2 mm 4 mps 697 mmHg 85%
    12:00 +6°C° 0.2 mm 4 mps 697 mmHg 84%
    13:00 +6°C° 0.2 mm 4 mps 697 mmHg 83%
    14:00 +6°C° 0.5 mm 4 mps 697 mmHg 85%
    15:00 +7°C° 0.5 mm 3 mps 697 mmHg 87%
    16:00 +5°C° 0.5 mm 3 mps 697 mmHg 89%
    17:00 +5°C° 1.1 mm 3 mps 697 mmHg 90%
    18:00 +5°C° 1.1 mm 4 mps 698 mmHg 91%
    19:00 +4°C° 1.1 mm 4 mps 698 mmHg 92%
    20:00 +4°C° 1.2 mm 4 mps 698 mmHg 93%
    21:00 +4°C° 1.2 mm 4 mps 698 mmHg 93%
    22:00 +4°C° 1.2 mm 4 mps 698 mmHg 93%
    23:00 +4°C° 1 mm 4 mps 698 mmHg 93%

    Day after tomorrow, 23 February, Friday

    Time Temperature Precipitation Wind Pressure Humidity
    00:00 +4°C° 1 mm 4 mps 698 mmHg 92%
    01:00 +4°C° 1 mm 4 mps 698 mmHg 92%
    02:00 +4°C° 0.8 mm 4 mps 698 mmHg 90%
    03:00 +4°C° 0.8 mm 4 mps 698 mmHg 89%
    04:00 +4°C° 0.8 mm 4 mps 698 mmHg 88%
    05:00 +4°C° 0.5 mm 4 mps 698 mmHg 87%
    06:00 +4°C° 0.5 mm 4 mps 698 mmHg 87%
    07:00 +4°C° 0.5 mm 4 mps 698 mmHg 87%
    08:00 +5°C° 0.1 mm 4 mps 698 mmHg 85%
    09:00 +6°C° 0.1 mm 4 mps 699 mmHg 83%
    10:00 +6°C° 0.1 mm 4 mps 699 mmHg 82%
    11:00 +7°C° 0 mm 4 mps 699 mmHg 78%
    12:00 +9°C° 0 mm 3 mps 699 mmHg 75%
    13:00 +9°C° 0 mm 3 mps 699 mmHg 72%
    14:00 +9°C° 0 mm 3 mps 699 mmHg 75%
    15:00 +9°C° 0 mm 3 mps 698 mmHg 79%
    16:00 +8°C° 0 mm 3 mps 698 mmHg 82%
    17:00 +7°C° 0 mm 3 mps 698 mmHg 83%
    18:00 +6°C° 0 mm 4 mps 698 mmHg 84%
    19:00 +5°C° 0 mm 5 mps 698 mmHg 85%
    20:00 +5°C° 0 mm 5 mps 698 mmHg 84%
    21:00 +3°C° 0 mm 5 mps 698 mmHg 84%
    22:00 +3°C° 0 mm 5 mps 698 mmHg 83%
    23:00 +3°C° 0 mm 5 mps 698 mmHg 83%

    24 February, Saturday

    Time Temperature Precipitation Wind Pressure Humidity
    00:00 +3°C° 0 mm 5 mps 698 mmHg 82%
    01:00 +3°C° 0 mm 5 mps 698 mmHg 82%
    02:00 +3°C° 0.1 mm 5 mps 698 mmHg 83%
    03:00 +4°C° 0.1 mm 4 mps 698 mmHg 83%
    04:00 +4°C° 0.1 mm 4 mps 699 mmHg 84%
    05:00 +4°C° 0.4 mm 4 mps 699 mmHg 85%
    06:00 +4°C° 0.4 mm 3 mps 699 mmHg 87%
    07:00 +4°C° 0.4 mm 3 mps 699 mmHg 88%
    08:00 +4°C° 0.6 mm 3 mps 700 mmHg 88%
    09:00 +6°C° 0.6 mm 2 mps 700 mmHg 87%
    10:00 +6°C° 0.6 mm 2 mps 700 mmHg 87%
    11:00 +6°C° 0.9 mm 2 mps 700 mmHg 88%
    12:00 +6°C° 0.9 mm 2 mps 700 mmHg 89%
    13:00 +5°C° 0.9 mm 3 mps 700 mmHg 91%
    14:00 +6°C° 0.7 mm 2 mps 700 mmHg 91%
    15:00 +6°C° 0.7 mm 2 mps 700 mmHg 91%
    16:00 +6°C° 0.7 mm 2 mps 700 mmHg 91%
    17:00 +6°C° 0.4 mm 2 mps 700 mmHg 91%
    18:00 +5°C° 0.4 mm 2 mps 700 mmHg 91%
    19:00 +5°C° 0.4 mm 2 mps 700 mmHg 92%
    20:00 +5°C° 0.7 mm 2 mps 700 mmHg 91%
    21:00 +5°C° 0.7 mm 2 mps 701 mmHg 91%
    22:00 +4°C° 0.7 mm 2 mps 701 mmHg 91%
    23:00 +4°C° 0.9 mm 2 mps 701 mmHg 91%

    25 February, Sunday

    Time Temperature Precipitation Wind Pressure Humidity
    00:00 +4°C° 0.9 mm 2 mps 701 mmHg 91%
    01:00 +3°C° 0.9 mm 2 mps 700 mmHg 91%
    02:00 +2°C° 0.8 mm 3 mps 700 mmHg 91%
    03:00 +2°C° 0.8 mm 3 mps 700 mmHg 91%
    04:00 +1°C° 0.8 mm 3 mps 700 mmHg 91%
    05:00 +1°C° 0.6 mm 3 mps 700 mmHg 91%
    06:00 +1°C° 0.6 mm 3 mps 700 mmHg 91%
    07:00 +1°C° 0.6 mm 3 mps 700 mmHg 91%
    08:00 +1°C° 0.7 mm 3 mps 700 mmHg 91%
    09:00 +1°C° 0.7 mm 3 mps 700 mmHg 91%
    10:00 0°C° 0.7 mm 4 mps 700 mmHg 91%
    11:00 0°C° 0.6 mm 4 mps 700 mmHg 91%
    12:00 0°C° 0.6 mm 4 mps 700 mmHg 91%
    13:00 0°C° 0.6 mm 4 mps 699 mmHg 91%
    14:00 0°C° 0.6 mm 4 mps 699 mmHg 91%
    15:00 0°C° 0.6 mm 4 mps 699 mmHg 91%
    16:00 0°C° 0.6 mm 4 mps 699 mmHg 91%
    17:00 -1°C° 0.6 mm 4 mps 699 mmHg 91%
    18:00 -1°C° 0.6 mm 4 mps 699 mmHg 90%
    19:00 -2°C° 0.6 mm 4 mps 700 mmHg 90%
    20:00 -2°C° 0.4 mm 4 mps 700 mmHg 89%
    21:00 -3°C° 0.4 mm 4 mps 699 mmHg 88%
    22:00 -4°C° 0.4 mm 4 mps 699 mmHg 87%
    23:00 -4°C° 0.3 mm 4 mps 699 mmHg 86%

    26 February, Monday

    Time Temperature Precipitation Wind Pressure Humidity
    00:00 -5°C° 0.3 mm 4 mps 699 mmHg 86%
    01:00 -6°C° 0.3 mm 5 mps 699 mmHg 85%
    02:00 -7°C° 0.2 mm 5 mps 698 mmHg 85%
    03:00 -7°C° 0.2 mm 5 mps 698 mmHg 85%
    04:00 -7°C° 0.2 mm 5 mps 697 mmHg 84%
    05:00 -7°C° 0.3 mm 4 mps 697 mmHg 84%
    06:00 -8°C° 0.3 mm 4 mps 697 mmHg 84%
    07:00 -8°C° 0.3 mm 4 mps 697 mmHg 85%
    08:00 -7°C° 0.3 mm 4 mps 697 mmHg 85%
    09:00 -7°C° 0.3 mm 4 mps 697 mmHg 85%
    10:00 -5°C° 0.3 mm 4 mps 697 mmHg 85%
    11:00 -5°C° 0.4 mm 3 mps 697 mmHg 85%
    12:00 -5°C° 0.4 mm 3 mps 696 mmHg 85%
    13:00 -5°C° 0.4 mm 3 mps 696 mmHg 85%
    14:00 -5°C° 0.3 mm 3 mps 696 mmHg 84%
    15:00 -5°C° 0.3 mm 3 mps 696 mmHg 84%
    16:00 -5°C° 0.3 mm 3 mps 696 mmHg 83%
    17:00 -6°C° 0.1 mm 3 mps 696 mmHg 84%
    18:00 -6°C° 0.1 mm 3 mps 696 mmHg 84%
    19:00 -7°C° 0.1 mm 3 mps 696 mmHg 85%
    20:00 -7°C° 0.1 mm 3 mps 696 mmHg 84%
    21:00 -8°C° 0.1 mm 3 mps 696 mmHg 84%
    22:00 -8°C° 0.1 mm 3 mps 696 mmHg 84%
    23:00 -9°C° 0.1 mm 3 mps 696 mmHg 84%
    Show more